Malmstrom AFB, MT

3:30 PM MDT on May 23, 2017 (GMT -0600)
Malmstrom AFB

Weather History for KGFA - October, 2013

Change the Weather History Date:

Tuesday, October 22, 2013

  Actual Average (KGTF) Record (KGTF)
Temperature  
Mean Temperature 50 °F -  
Max Temperature 68 °F 56 °F 80 °F (1915)
Min Temperature 33 °F 35 °F 8 °F (1917)
Degree Days  
Heating Degree Days 14    
Moisture  
Dew Point 32 °F    
Average Humidity 54    
Maximum Humidity 85    
Minimum Humidity 21    
Precipitation  
Precipitation 0.00 in - - ()
Sea Level Pressure  
Sea Level Pressure 30.18 in    
Wind  
Wind Speed 5 mph (SSW)    
Max Wind Speed 16 mph    
Max Gust Speed -    
Visibility 10 miles    
Events      
Averages and records for this station are not official NWS values.
T = Trace of Precipitation, MM = Missing Value Source: NWS Daily Summary

Daily Weather History Graph

Daily Weather History Graph

Search for Another Location

Airport or City:

Trip Planner

Search our weather history database for the weather conditions in past years. The results will help you decide how hot, cold, wet, or windy it might be!

Date:

Astronomy

Oct. 22, 2013 Rise Set
Actual Time 7:54 AM MDT 6:23 PM MDT
Civil Twilight 7:22 AM MDT 6:54 PM MDT
Nautical Twilight 6:46 AM MDT 7:30 PM MDT
Astronomical Twilight 6:11 AM MDT 8:06 PM MDT
Moon 8:55 PM MDT (10/22) 11:36 AM MDT (10/22)
Length of Visible Light 11h 32m
Length of Day
10h 29m
Waning Gibbous, 86% of the Moon is Illuminated
Oct 22
Waning Gibbous
Oct 26
Last Quarter
Nov 3
New
Nov 9
First Quarter
Nov 17
Full

Hourly Weather History & Observations

Time (MDT) Temp. Windchill Dew Point Humidity Pressure Visibility Wind Dir Wind Speed Gust Speed Precip Events Conditions
12:56 AM 43.0 °F 38.8 °F 34.0 °F 71% 30.18 in 10.0 mi SW 6.9 mph - N/A   Clear
1:56 AM 42.1 °F - 34.0 °F 73% 30.18 in 10.0 mi Calm Calm - N/A   Clear
2:56 AM 39.9 °F - 33.1 °F 77% 30.20 in 10.0 mi Calm Calm - N/A   Clear
4:56 AM 33.1 °F 28.7 °F 28.9 °F 85% 30.21 in 10.0 mi NE 4.6 mph - N/A   Clear
5:56 AM 37.0 °F - 30.9 °F 79% 30.20 in 10.0 mi Calm Calm - N/A   Clear
6:56 AM 37.9 °F - 32.0 °F 79% 30.22 in 10.0 mi Calm Calm - N/A   Clear
7:56 AM 35.1 °F 30.1 °F 30.9 °F 85% 30.22 in 10.0 mi SE 5.8 mph - N/A   Clear
8:56 AM 39.9 °F 34.5 °F 34.0 °F 79% 30.22 in 10.0 mi SSW 8.1 mph - N/A   Clear
9:56 AM 48.9 °F - 37.0 °F 64% 30.21 in 10.0 mi SSW 6.9 mph - N/A   Clear
10:56 AM 57.0 °F - 37.0 °F 47% 30.18 in 10.0 mi SSW 16.1 mph - N/A   Clear
11:56 AM 60.1 °F - 35.1 °F 39% 30.18 in 10.0 mi SSW 11.5 mph - N/A   Clear
12:56 PM 63.0 °F - 33.1 °F 33% 30.16 in 10.0 mi SW 11.5 mph - N/A   Clear
1:56 PM 66.0 °F - 30.9 °F 27% 30.15 in 10.0 mi West 9.2 mph - N/A   Clear
2:56 PM 66.0 °F - 28.9 °F 25% 30.14 in 10.0 mi WSW 4.6 mph - N/A   Clear
3:56 PM 68.0 °F - 27.0 °F 21% 30.13 in 10.0 mi NW 5.8 mph - N/A   Clear
4:56 PM 68.0 °F - 26.1 °F 21% 30.16 in 10.0 mi Calm Calm - N/A   Clear
5:56 PM 64.9 °F - 28.0 °F 25% 30.16 in 10.0 mi Calm Calm - N/A   Clear
6:56 PM 54.0 °F - 28.9 °F 38% 30.18 in 10.0 mi ESE 3.5 mph - N/A   Clear
7:56 PM 48.0 °F - 30.0 °F 50% 30.19 in 10.0 mi South 4.6 mph - N/A   Clear
8:56 PM 51.1 °F - 32.0 °F 48% 30.18 in 10.0 mi Calm Calm - N/A   Clear
9:56 PM 42.1 °F 38.4 °F 32.0 °F 67% 30.21 in 10.0 mi East 5.8 mph - N/A   Clear
10:56 PM 45.0 °F - 30.9 °F 58% 30.20 in 10.0 mi Calm Calm - N/A   Clear